Home   Weather   Waterloo   Past weeks

Flag for Canada Past Weather in Waterloo, Ontario, Canada — Yesterday and Last 2 Weeks

45 °F


Feels Like: 36 °F
Forecast: 29 / 44 °F
Wind: 22 mph from Northwest

Location: Waterloo Well

Current Time: Oct 25, 2016 at 11:36:53 AM

Latest Report: Oct 25, 2016 at 11:00 AM

Visibility: 9 mi

Pressure: 30.35 "Hg

Humidity: 46%

Dew Point: 25 °F

Location of WaterlooLocation

Past Weather in Waterloo — Graph


Waterloo Temperature Yesterday

Maximum temperature yesterday: 50 °F (at 1:00 PM)
Minimum temperature yesterday: 39 °F (at 9:00 PM)
Average temperature yesterday: 44 °F

High & Low Weather Summary for the Past Weeks

High73 °F (Oct 12, 3:00 PM)100% (Oct 11, 3:00 AM)30.50 "Hg (Oct 11, 3:00 AM)
Low30 °F (Oct 11, 6:00 AM)31% (Oct 10, 5:00 PM)29.58 "Hg (Oct 18, 12:00 PM)
Average52 °F81%30.05 "Hg
* Reported Oct 10 10:00 AM — Oct 25 10:00 AM, Waterloo, Weather by CustomWeather, © 2016

Note: Actual official high and low records may vary slightly from our data, if they occured in-between our weather recording intervals... More about our weather records


Waterloo Weather History for the Previous 24 Hours

Scroll right to see more
Time TempWeatherWind HumidityBarometerVisibility
10:00 AM
Tue, Oct 25
43 °FSunny.15 mph53%30.35 "Hg9 mi
9:00 AM39 °FOvercast.10 mph61%30.35 "Hg9 mi
8:00 AM37 °FOvercast.7 mph65%30.34 "Hg9 mi
7:00 AM37 °FPassing clouds.9 mph60%30.32 "Hg9 mi
6:00 AM37 °FPassing clouds.9 mph65%30.31 "Hg9 mi
5:00 AM37 °FOvercast.12 mph70%30.29 "Hg9 mi
4:00 AM39 °FOvercast.8 mph75%30.29 "Hg9 mi
3:00 AM39 °FOvercast.9 mph75%30.27 "Hg9 mi
2:00 AM39 °FMostly cloudy.9 mph81%30.27 "Hg9 mi
1:00 AM39 °FMostly cloudy.9 mph81%30.26 "Hg9 mi
12:00 AM41 °FPassing clouds.9 mph87%30.27 "Hg9 mi
11:04 PM
Mon, Oct 24
41 °FMostly cloudy.9 mph87%30.27 "Hg9 mi
10:51 PM41 °FLight rain. Mostly cloudy.10 mph87%30.27 "Hg9 mi
10:01 PM41 °FMostly cloudy.8 mph81%30.26 "Hg9 mi
9:00 PM39 °FPassing clouds.7 mph81%30.25 "Hg9 mi
8:00 PM41 °FClear.9 mph76%30.23 "Hg9 mi
7:00 PM43 °FPassing clouds.16 mph66%30.22 "Hg9 mi
6:00 PM45 °FPartly sunny.16 mph57%30.21 "Hg9 mi
5:00 PM48 °FPartly sunny.15 mph58%30.18 "Hg9 mi
4:00 PM48 °FBroken clouds.17 mph58%30.17 "Hg9 mi
3:00 PM48 °FPartly sunny.20 mph54%30.15 "Hg9 mi
2:00 PM48 °FPartly sunny.23 mph50%30.14 "Hg9 mi
1:00 PM50 °FPartly sunny.15 mph58%30.14 "Hg9 mi
12:00 PM46 °FMostly cloudy.15 mph62%30.12 "Hg9 mi
11:00 AM45 °FBroken clouds.14 mph71%30.11 "Hg9 mi
Weather by CustomWeather, © 2016

See weather overviewHow to use our weather pages